STARLINK-2092, 47373

Orbit data source: Space-Track

STARLINK-2092, 47373 is a payload satellite owned by SpaceX/Seattle (US) in LEO that was launched on Wed, 20 Jan 2021 UTC via an FALCON 9 launch vehicle from the Air Force Eastern Test Range (AFETR). Payload-class satellites include a variety of spacecraft equipped with specific instruments for various scientific and technological missions. These include communications satellites like Starlink; space stations such as the ISS; scientific satellites like the Hubble; Earth observation satellites from companies like Planet Labs, Umbra, and HawkEye 360; GPS; miniature CubeSats for education and research; and military/defense satellites.

Loading next visibility...
Identifier
47373, 2021-005AA
Orbit
LEO
Country
Flag of USUS
Related business
Manufacturer
SpaceX/Seattle
Mission
Operational Commercial Communications
Bus & Motor
STARLINK, Unknown motor
Mass
260 kg wet, ~248 kg dry
Launch date (UTC)
2021-01-20 (5 years ago)
Launch vehicle
FALCON 9
Launch site
Air Force Eastern Test Range (AFETR)
Object type
Payload
Rocket body
Debris
Shape & HBR
Box + 1 Pan, 10.1 m
Radar Cross Section
13.562 m², Large (>1 m²)

Expand to show TLE details & history
Last TLE update: 3 days ago

TLE from 3 days ago
0 STARLINK-2092
1 47373U 21005AA  26170.60192131  .00004958  00000-0  17130-3 0  9992
2 47373  53.1595 308.3791 0000776  79.6498 280.4591 15.31725771298645
Epoch: 2026-06-19T14:26Z
TLE epoch observation values (Epoch: 2026-06-19T14:26:46.001Z)
Latitude
Longitude
-176.14111°
Altitude
471.467 km
Speed
7.632 km/s
True Right ascension
20h 33m 30s
True Declination
0° 00' 00"
Sunlit
Object was in full shadow at epoch
Visualization orbit readout
Latitude
Unknown
Longitude
Unknown
Altitude
Unknown
Speed
Unknown
Apparent Right ascension
Unknown
Apparent Declination
Unknown
Sunlit
N/A
Visualization observer readout
Local Sidereal Time
21:48:30
Azimuth
Unknown
Elevation
Unknown
Doppler factor
Unknown
Orbital elements
Apogee altitude
471.451 km
Perigee altitude
470.388 km
Semi-major axis
6,849.057 km
Eccentricity
0.00008
Inclination
53.1595°
RAAN
308.3791°
Arg. of periapsis
79.6498°
True anomaly
280.45036°
Mean anomaly
280.4591°
Eccentric anomaly
280.45473°
Mean motion
3.8291 °/min
Orbital period
94.02 mins
BSTAR
0.0001713
Loading maneuver chart data...
Computing Atmospheric mass density...

Documentation

Showing up to 5 results
|